Home > Time Zones > World Clock > Weather > Egypt > Cairo > Past weeks

Flag Weather past 2 weeks in Cairo, Egypt

Now
59 °F

Scattered clouds.


Feels Like: 59 °F
Forecast: 58 / 70 °F
Wind: No wind

Location: Cairo Airport

Current Time: Nov 23, 2014 at 7:58:18 AM

Latest Report: Nov 23, 2014 at 7:30 AM


Visibility: 4 mi

Pressure: 30.07 "Hg

Humidity: 68%

Dew point: 48 °F

Location of CairoLocation

Historic Weather in Cairo — Graph

°F

Cairo temperature yesterday

Maximum temperature yesterday: 72 °F (at 12:00 PM)
Minimum temperature yesterday: 59 °F (at 6:00 AM)
Average temperature yesterday: 66 °F

Past Weeks' High & Low Weather Summary

 TemperatureHumidityPressure
High86 °F (Nov 8, 12:00 PM)100% (Nov 20, 8:00 AM)30.15 "Hg (Nov 20, 8:00 AM)
Low57 °F (Nov 19, 6:30 AM)16% (Nov 8, 4:30 PM)29.89 "Hg (Nov 13, 3:00 PM)
Average69 °F61%30.02 "Hg
* Reported Nov 8 6:30 AM — Nov 23 6:30 AM, Cairo, Weather by CustomWeather, © 2014

Note: Actual official high and low records may vary slightly from our data, if they occured in-between our weather recording intervals... More about our weather records

Advertising

Cairo weather history for previous 24 hours

 ConditionsComfort  
Time TempWeatherWind HumidityBarometerVisibility
6:30 AM
Nov 23
59 °FScattered clouds.No wind68%30.07 "HgN/A
6:00 AM59 °FPassing clouds.No wind68%30.07 "HgN/A
5:30 AM59 °FClear.No wind68%30.07 "Hg10 mi
5:00 AM59 °FClear.No wind68%30.07 "Hg10 mi
4:30 AM61 °FPassing clouds.No wind63%30.07 "HgN/A
4:00 AM61 °FPassing clouds.No wind63%30.07 "HgN/A
3:30 AM63 °FPassing clouds.No wind59%30.07 "HgN/A
3:00 AM63 °FPassing clouds.No wind59%30.07 "HgN/A
2:30 AM63 °FPassing clouds.No wind59%30.07 "HgN/A
2:00 AM63 °FPassing clouds.5 mph59%30.09 "HgN/A
1:30 AM63 °FPassing clouds.3 mph59%30.07 "HgN/A
1:00 AM64 °FPassing clouds.3 mph52%30.07 "HgN/A
12:30 AM64 °FPassing clouds.5 mph52%30.09 "HgN/A
12:00 AM64 °FPassing clouds.5 mph52%30.09 "HgN/A
11:30 PM
Nov 22
64 °FPassing clouds.No wind56%30.09 "HgN/A
11:00 PM64 °FPassing clouds.No wind56%30.09 "HgN/A
10:30 PM63 °FPassing clouds.No wind59%30.09 "HgN/A
10:00 PM63 °FPassing clouds.No wind59%30.09 "HgN/A
9:30 PM63 °FPassing clouds.No wind59%30.09 "HgN/A
9:00 PM64 °FPassing clouds.No wind60%30.09 "HgN/A
8:30 PM64 °FPassing clouds.5 mph60%30.09 "HgN/A
8:00 PM66 °FPassing clouds.8 mph56%30.09 "HgN/A
7:30 PM66 °FPassing clouds.8 mph60%30.09 "HgN/A
7:00 PM66 °FPassing clouds.8 mph60%30.09 "HgN/A
6:30 PM66 °FPassing clouds.8 mph60%30.07 "HgN/A
6:00 PM68 °FPassing clouds.9 mph56%30.07 "HgN/A
5:30 PM68 °FPassing clouds.10 mph60%30.07 "HgN/A
5:00 PM70 °FPassing clouds.8 mph57%30.07 "HgN/A
4:30 PM70 °FScattered clouds.9 mph57%30.04 "HgN/A
4:00 PM70 °FScattered clouds.9 mph53%30.04 "HgN/A
3:30 PM70 °FScattered clouds.10 mph53%30.04 "HgN/A
3:00 PM72 °FScattered clouds.10 mph44%30.04 "HgN/A
2:30 PM72 °FScattered clouds.10 mph47%30.04 "HgN/A
2:00 PM72 °FScattered clouds.10 mph47%30.04 "HgN/A
1:30 PM72 °FPartly sunny.10 mph47%30.04 "HgN/A
1:00 PM72 °FPartly sunny.9 mph47%30.07 "HgN/A
12:30 PM70 °FPartly sunny.12 mph46%30.07 "HgN/A
12:00 PM72 °FPartly sunny.10 mph47%30.07 "HgN/A
11:30 AM70 °FBroken clouds.12 mph50%30.09 "HgN/A
11:00 AM68 °FBroken clouds.12 mph56%30.09 "HgN/A
10:30 AM68 °FScattered clouds.12 mph56%30.09 "HgN/A
10:00 AM66 °FScattered clouds.9 mph56%30.09 "HgN/A
9:30 AM66 °FScattered clouds.8 mph60%30.09 "HgN/A
9:00 AM66 °FScattered clouds.8 mph60%30.09 "HgN/A
8:30 AM64 °FScattered clouds.5 mph60%30.09 "HgN/A
8:00 AM64 °FScattered clouds.No wind60%30.09 "HgN/A
7:30 AM61 °FSunny.No wind68%30.09 "Hg10 mi
7:00 AM61 °FSunny.No wind68%30.07 "Hg10 mi
Weather by CustomWeather, © 2014

See weather overviewHow to use our weather pages